Regional Weather Roundup
Issued by NWS

Home | Current Version | Previous Version | Text Only | Print | Product List | Glossary Off
Versions: 1 2 3 4 5 6 7 8 9 10 11 12 13 14 15 16 17 18 19 20 21 22 23 24 25 26 27 28 29 30 31 32 33 34 35 36 37 38 39 40 41 42 43 44 45 46 47 48 49 50

000
ASUS43 KMPX 152001
RWRMN
WEATHER ROUNDUP FOR MINNESOTA
NATIONAL WEATHER SERVICE TWIN CITIES/CHANHASSEN MN
300 PM CDT MON SEP 15 2014


NOTE: "FAIR" INDICATES FEW OR NO CLOUDS BELOW 12,000 FEET WITH NO
SIGNIFICANT WEATHER AND/OR OBSTRUCTIONS TO VISIBILITY. N/A MEANS
CURRENT SKY AND/OR WEATHER CONDITIONS ARE NOT AVAILABLE.

MNZ060>063-068>070-152100-
   Twin Cities Metro

CITY           SKY/WX    TMP DP  RH WIND       PRES   REMARKS
TWIN CITIES    PTSUNNY   59  40  49 NW13      30.21S
ST PAUL        CLOUDY    59  41  51 NW12      30.22S
CRYSTAL        MOSUNNY   63  35  35 NW9       30.20F
BLAINE         PTSUNNY   61  39  44 NW7G17    30.21F
LAKEVILLE      CLOUDY    57  43  58 N10       30.21S
EDEN PRAIRIE   PTSUNNY   62  40  44 W8G16     30.21S
SOUTH ST PAUL  CLOUDY    60  38  45 N7        30.20F
LAKE ELMO      PTSUNNY   57  41  54 NW6       30.21F
$$
MNZ001>005-007-008-013>017-022>024-027-028-152100-
   Northwest Minnesota

CITY           SKY/WX    TMP DP  RH WIND       PRES   REMARKS
BEMIDJI        MOSUNNY   59  33  37 W9        30.18F
HALLOCK        SUNNY     64  30  27 W10G16    30.12F
ROSEAU         SUNNY     61  36  39 W8        30.14F
WARROAD        SUNNY     61  39  44 SW7       30.13F
THIEF RVR FALL PTSUNNY   63  36  36 W12       30.16F
CROOKSTON      MOSUNNY   64  37  36 W14       30.17F
FOSSTON        PTSUNNY   63  37  39 W12       30.19F
DETROIT LAKES  MOSUNNY   59  32  36 NW8       30.22F
MOORHEAD       SUNNY     63  27  25 W7        30.21F
PARK RAPIDS    MOSUNNY   59  30  33 NW15G22   30.19F
MAHNOMEN       MOCLDY    60  35  38 W14       30.20F
$$
MNZ006-009>011-018-025>026-152100-
   North Central Minnesota

CITY           SKY/WX    TMP DP  RH WIND       PRES   REMARKS
BAUDETTE       SUNNY     60  32  34 SW12G20   30.13F
FLAG ISLAND    PTSUNNY   59  34  38 W10G17    30.09F
INTL FALLS     MOSUNNY   60  36  40 W9G21     30.13F
WASKISH        PTSUNNY   57  41  54 SW14      30.16F
BIG FORK       SUNNY     57  34  41 W5        30.17F
LONGVILLE      SUNNY     59  34  38 NW6       30.19F
GRAND RAPIDS   CLOUDY    54  34  47 W8        30.19S
CRANE LAKE     MOSUNNY   55  36  47 W5        30.15F
ORR            PTSUNNY   57  34  41 NW9       30.13F
COOK           MOSUNNY   55  36  47 W12       30.16S
WALKER         FAIR      58  32  37 W10       30.19F
$$
MNZ012-019>021-037-152100-
   Northeast Minnesota

CITY           SKY/WX    TMP DP  RH WIND       PRES   REMARKS
DULUTH         MOSUNNY   57  32  38 N8G20     30.16F
ELY            MOSUNNY   55  36  47 NW10G18   30.13F
HIBBING        PTSUNNY   60  34  37 NW12      30.17F
EVELETH        MOSUNNY   57  36  44 W8G20     30.16F
DULUTH HARBOR  MOSUNNY   59  36  41 NW10      30.18S
TWO HARBORS    SUNNY     55  34  44 W8        30.13F
SILVER BAY     SUNNY     55  39  54 W7        30.12F
GRAND MARAIS     N/A     60  38  43 VRB7      30.09F
G MARAIS ARPRT MOSUNNY   52  34  50 NW7       30.11S
$$
MNZ029>031-032-039>041-046>048-054>057-064-152100-
   West Central Minnesota

CITY           SKY/WX    TMP DP  RH WIND       PRES   REMARKS
FERGUS FALLS   SUNNY     61  27  27 NW9       30.23F
WHEATON        SUNNY     61  32  33 NW9       30.25F
MORRIS         SUNNY     63  34  34 NW9G16    30.22F
ALEXANDRIA     MOSUNNY   59  33  37 N14       30.23F
ELBOW LAKE     FAIR      59  34  38 N12       30.22F
WADENA         MOSUNNY   59  34  38 N9        30.21F
GLENWOOD       MOSUNNY   57  37  47 NW10      30.23F
APPLETON       SUNNY     63  32  31 NW9G20    30.23F
BENSON         SUNNY     63  36  36 N9        30.22F
ORTONVILLE     SUNNY     61  30  31 N10       30.24F
MADISON        SUNNY     63  37  39 N10       30.24F
WILLMAR        FAIR      63  34  34 NW10      30.24F
$$
MNZ033>034-036-042>043-049>051-058-059-152100-
   Central Minnesota

CITY           SKY/WX    TMP DP  RH WIND       PRES   REMARKS
ST CLOUD       CLOUDY    63  36  36 NW10      30.21F
SAUK CENTRE    MOCLDY    58  35  43 NW10      30.22F
PAYNESVILLE    PTSUNNY   56  34  43 W8        30.23F
AITKIN         MOSUNNY   61  34  36 NW7       30.19F
PINE RIVER     PTSUNNY   57  36  44 N7        30.22F
BRAINERD       MOSUNNY   57  32  38 NW8       30.21F
STAPLES        MOSUNNY   57  32  38 NW8       30.21F
LONG PRAIRIE   FAIR      57  34  41 W8        30.22F
LITTLE FALLS   PTSUNNY   55  34  44 NW6       30.22F
LITCHFIELD     PTSUNNY   61  37  41 NW9       30.23S
BUFFALO        PTSUNNY   61  34  36 W8        30.22F
MAPLE LAKE     PTSUNNY   60  40  48 NW8       30.23F
$$
MNZ037-044-045-052-053-152100-
   East Central Minnesota

CITY           SKY/WX    TMP DP  RH WIND       PRES   REMARKS
PRINCETON      PTSUNNY   59  37  44 NW9       30.22S
MORA           PTSUNNY   55  36  47 NW8       30.22S
CAMBRIDGE      PTSUNNY   61  43  51 N7G17     30.19F
RUSH CITY      CLOUDY    58  38  47 NW7G17    30.21S
MOOSE LAKE     MOSUNNY   55  32  41 NW7G20    30.17F
HINCKLEY       MOCLDY    55  36  47 NW7       30.19F
CLOQUET        MOSUNNY   57  30  35 NW10G18   30.17F
MCGREGOR       MOSUNNY   55  32  41 NW12G18   30.19F
$$
MNZ071>073-080-081-089-090-097-098-152100-
   Southwest Minnesota

CITY           SKY/WX    TMP DP  RH WIND       PRES   REMARKS
MONTEVIDEO     MOSUNNY   64  39  39 N10       30.24F
GRANITE FALLS  MOSUNNY   59  38  45 NW8       30.25F
CANBY          SUNNY     60  37  42 N9        30.26S
MARSHALL       MOSUNNY   61  37  41 N8        30.23F
REDWOOD FALLS  MOSUNNY   62  38  40 NW13      30.23F
OLIVIA         SUNNY     61  37  41 NW5       30.22F
PIPESTONE      PTSUNNY   57  37  47 N6        30.25S
WINDOM         MOSUNNY   61  37  41 N10       30.24S
WORTHINGTON    PTSUNNY   57  37  47 NW8       30.25S
JACKSON        PTSUNNY   59  36  41 NE8       30.24F
TRACY          PTSUNNY   61  41  47 CALM      30.24F
SLAYTON        PTSUNNY   58  37  45 CALM      30.25F
$$
MNZ065>067-074>077-082>085-091>093-152100-
   South Central Minnesota

CITY           SKY/WX    TMP DP  RH WIND       PRES   REMARKS
MANKATO        PTSUNNY   57  37  47 N12       30.22S
NEW ULM        PTSUNNY   59  39  47 N9        30.22S
ST JAMES       PTSUNNY   63  37  39 N7        30.24F
FAIRMONT       CLOUDY    61  34  36 N10       30.23S
GLENCOE        PTSUNNY   59  35  40 N7        30.21F
FARIBAULT      PTSUNNY   61  39  44 N6        30.21F
OWATONNA       PTSUNNY   59  43  55 NW9       30.21S
WASECA         CLOUDY    59  36  41 N13       30.23F
ALBERT LEA     MOSUNNY   61  43  51 NW10      30.20F
$$
MNZ078>079-086>088-094>096-152100-
   Southeast Minnesota

CITY           SKY/WX    TMP DP  RH WIND       PRES   REMARKS
ROCHESTER      MOSUNNY   59  43  55 N10       30.20F
RED WING       CLOUDY    61  37  41 N8        30.19R
STANTON        PTSUNNY   59  42  52 N13       30.20S
DODGE CENTER   PTSUNNY   55  43  62 N12       30.21S
WINONA         PTSUNNY   61  46  59 NW7G16    30.18F
AUSTIN         PTSUNNY   57  45  62 N10       30.20F
PRESTON        MOSUNNY   58  49  74 N12G18    30.19F
$$
ABBREVIATIONS USED IN REMARKS
   TC - TEMPERATURES IN CELSIUS
  WCI - WIND CHILL INDEX
   HX - HEAT INDEX
  VSB - VISIBILITY
$$


USA.gov is the U.S. government's official web portal to all federal, state and local government web resources and services.